EW0680 Weather Reports


time (UTC)temp
C
wind
direction
speed
KPH
gust
KPH
rain 1hr
cm
rain 24hr
cm
rain mn
cm
humidity
%
barometer
mb
20260904184525 32 350 4.8 11.3 0.00 0.00 0.00 66 1013.3
20260904183029 32 357 0.0 6.4 0.00 0.00 0.00 65 1013.7
20260904181538 32 334 3.2 8.0 0.00 0.00 0.00 65 1013.9
20260904180048 32 342 3.2 12.9 0.00 0.00 0.00 66 1014.1
20260904174546 31 316 3.2 11.3 0.00 0.00 0.00 66 1014.4
20260904173103 32 340 4.8 14.5 0.00 0.00 0.00 66 1014.7
20260904171555 31 337 4.8 12.9 0.00 0.00 0.00 65 1014.7
20260904170107 32 346 6.4 14.5 0.00 0.00 0.00 64 1014.9
20260904170001 32 337 8.0 14.5 0.00 0.00 0.00 65 1014.9
20260904164504 32 325 4.8 12.9 0.00 0.00 0.00 68 1014.9
20260904163014 32 322 4.8 8.0 0.00 0.00 0.00 69 1014.9
20260904161515 31 298 3.2 8.0 0.00 0.00 0.00 72 1015.1
20260904160013 31 321 1.6 8.0 0.00 0.00 0.00 72 1015.2
20260904154514 31 307 3.2 9.7 0.00 0.00 0.00 73 1015.2
20260904153015 30 309 3.2 11.3 0.00 0.00 0.00 75 1015.1
20260904151517 30 331 4.8 11.3 0.00 0.00 0.00 73 1015.0
20260904150031 30 315 4.8 11.3 0.00 0.00 0.00 74 1014.9
20260904144518 29 330 3.2 9.7 0.00 0.00 0.00 76 1014.9
20260904143029 28 317 3.2 6.4 0.00 0.00 0.00 78 1014.8
20260904141602 28 304 3.2 6.4 0.00 0.00 0.00 79 1014.8
20260904140059 28 339 3.2 6.4 0.00 0.00 0.00 79 1014.8
20260904134556 27 316 1.6 4.8 0.00 0.00 0.00 82 1014.7
20260904134500 27 316 1.6 4.8 0.00 0.00 0.00 82 1014.7
20260904133056 26 282 0.0 3.2 0.00 0.00 0.00 84 1014.5
20260904131557 25 278 0.0 3.2 0.00 0.00 0.00 86 1014.4
20260904130059 25 278 0.0 0.0 0.00 0.00 0.00 88 1014.8
20260904124504 24 285 0.0 0.0 0.00 0.00 0.00 87 1014.9
20260904123008 23 285 0.0 0.0 0.00 0.00 0.00 87 1014.9
20260904121513 23 285 0.0 0.0 0.00 0.00 0.00 88 1014.9
20260904120019 23 285 0.0 0.0 0.00 0.00 0.00 87 1014.7
20260904114525 23 285 0.0 0.0 0.00 0.00 0.00 88 1014.3
20260904113012 22 285 0.0 0.0 0.00 0.00 0.00 87 1014.2
20260904111603 22 285 0.0 0.0 0.00 0.00 0.00 87 1014.0
20260904110050 22 285 0.0 0.0 0.00 0.00 0.00 87 1014.0
20260904104557 22 285 0.0 0.0 0.00 0.00 0.00 87 1013.7
20260904103058 22 285 0.0 0.0 0.00 0.00 0.00 87 1013.4
20260904101505 23 285 0.0 0.0 0.00 0.00 0.00 87 1013.5
20260904100019 23 285 0.0 0.0 0.00 0.00 0.00 87 1013.5
20260904094507 23 285 0.0 0.0 0.00 0.00 0.00 87 1013.5
20260904093009 23 285 0.0 0.0 0.00 0.00 0.00 87 1013.5
20260904091512 23 285 0.0 0.0 0.00 0.00 0.00 87 1013.3
20260904090012 23 285 0.0 0.0 0.00 0.00 0.00 87 1013.3
20260904084556 23 285 0.0 0.0 0.00 0.00 0.00 88 1013.3
20260904083007 23 285 0.0 0.0 0.00 0.00 0.00 88 1013.3
20260904081513 23 285 0.0 0.0 0.00 0.00 0.00 88 1013.6
20260904080019 22 285 0.0 0.0 0.00 0.00 0.00 87 1013.5
20260904074524 22 285 0.0 0.0 0.00 0.00 0.00 88 1013.7
20260904073018 22 285 0.0 0.0 0.00 0.00 0.00 88 1013.9
20260904071529 22 285 0.0 0.0 0.00 0.00 0.00 88 1014.0
20260904070028 22 285 0.0 0.0 0.00 0.00 0.00 88 1014.1
20260904064533 22 285 0.0 0.0 0.00 0.00 0.00 88 1014.2
20260904063037 22 285 0.0 0.0 0.00 0.00 0.00 88 1014.3
20260904061524 22 285 0.0 0.0 0.00 0.00 0.00 88 1014.4
20260904060028 22 285 0.0 0.0 0.00 0.00 0.00 88 1014.5
20260904054530 22 285 0.0 0.0 0.00 0.00 0.00 87 1014.4
20260904053038 23 285 0.0 0.0 0.00 0.00 0.00 87 1014.4
20260904051539 23 285 0.0 0.0 0.00 0.00 0.00 87 1014.4
20260904050048 23 285 0.0 0.0 0.00 0.00 0.00 87 1014.4
20260904044550 23 285 0.0 0.0 0.00 0.00 0.00 87 1014.4
20260904043117 23 285 0.0 0.0 0.00 0.00 0.00 87 1014.4
20260904041605 23 285 0.0 0.0 0.00 0.00 0.00 87 1014.3
20260904041501 23 285 0.0 0.0 0.00 0.00 0.00 87 1014.3
20260904040011 23 285 0.0 0.0 0.00 0.00 0.00 87 1014.3
20260904034504 23 284 0.0 0.0 0.00 0.00 0.00 87 1014.3
20260904033010 23 4 0.0 0.0 0.00 0.00 0.00 87 1014.3
20260904031557 23 4 0.0 3.2 0.00 0.00 0.00 87 1014.5
20260904030100 23 337 0.0 4.8 0.00 0.00 0.00 84 1014.8
20260904030002 23 325 0.0 0.0 0.00 0.00 0.00 84 1014.8
20260904024555 24 325 0.0 0.0 0.00 0.00 0.00 83 1014.7
20260904023008 25 325 0.0 0.0 0.00 0.00 0.00 82 1014.6
20260904021554 25 325 0.0 3.2 0.00 0.00 0.00 81 1014.8
20260904020053 25 308 0.0 0.0 0.00 0.00 0.00 80 1014.8
20260904014621 25 349 0.0 6.4 0.00 0.00 0.00 80 1014.6
20260904013058 26 38 0.0 0.0 0.00 0.00 0.00 78 1014.4
20260904011556 26 72 1.6 4.8 0.00 0.00 0.00 77 1014.3
20260904010044 27 327 6.4 14.5 0.00 0.00 0.00 77 1014.4
20260904004553 27 347 4.8 14.5 0.00 0.00 0.00 78 1014.2
20260904003059 28 185 0.0 0.0 0.00 0.00 0.00 77 1013.6
20260904001506 29 185 0.0 0.0 0.00 0.00 0.00 76 1013.6
20260904000028 30 185 0.0 0.0 0.00 0.00 0.00 74 1013.8
20260903234516 30 185 0.0 0.0 0.00 0.00 0.00 74 1013.9
20260903233023 30 185 0.0 0.0 0.00 0.00 0.00 73 1013.6
20260903231528 31 185 0.0 0.0 0.00 0.00 0.00 72 1013.5
20260903230034 31 185 0.0 0.0 0.00 0.00 0.00 73 1013.3
20260903224544 32 185 0.0 0.0 0.00 0.00 0.00 69 1013.4
20260903223022 32 284 0.0 0.0 0.00 0.00 0.00 67 1013.5
20260903221524 32 33 1.6 9.7 0.00 0.00 0.00 66 1013.3
20260903220029 33 297 0.0 4.8 0.00 0.00 0.00 65 1013.2
20260903214547 33 309 1.6 4.8 0.00 0.00 0.00 64 1013.1
20260903213047 33 271 0.0 3.2 0.00 0.00 0.00 64 1012.7
20260903211523 33 306 0.0 3.2 0.00 0.00 0.00 62 1012.6
20260903210042 33 302 1.6 8.0 0.00 0.00 0.00 60 1012.7
20260903204539 33 307 1.6 8.0 0.00 0.00 0.00 58 1012.8
20260903203044 33 338 1.6 6.4 0.00 0.00 0.00 59 1012.9
20260903201541 33 318 1.6 6.4 0.00 0.00 0.00 58 1013.2
20260903200041 34 294 0.0 4.8 0.00 0.00 0.00 60 1013.3
20260903194548 33 246 0.0 6.4 0.00 0.00 0.00 63 1013.6
20260903193017 33 142 0.0 4.8 0.00 0.00 0.00 64 1014.0
20260903191535 34 302 3.2 6.4 0.00 0.00 0.00 59 1014.3
20260903190024 34 204 0.0 3.2 0.00 0.00 0.00 61 1014.4